Find Starlink 33681

NORAD ID: 63438 Int'l Des: 2025-069 Owner: SPXS Country: US Constellation: starlink operational
LEOCIRCULAR

現在のビュー

3D地球を読み込み中...

About Starlink 33681

Starlink 33681 (NORAD 63438) is a starlink constellation satellite (v2 mini) launched Apr 4, 2025 by SPXS of US. It operates in LEO, CIRCULAR orbit with a mass of 575.00 kg.

Starlink 33681について

説明を読み込み中...

次回通過

Passes for default location (London). Set your location on the main map for personalized predictions.

高度履歴

Loading altitude history...

軌道要素

1 63438U 25069F 26169.00003472 .00068350 00000-0 12283-2 0 9996
2 63438 53.1584 31.1816 0001074 83.6859 78.3145 15.49261097 5864
Epoch: Jun 18, 2026 • Age: 20 hours

現在のステータス

高度 419.4 km
速度 7.66 km/s
衛星直下点 0.53°N, 3.34°W
打ち上げ日 Apr 4, 2025
運用期間 1.2 years
タイプ internet

技術仕様

分類 Payload
質量 575.00 kg
乾燥質量 530.00 kg
総質量 575.00 kg
長さ 0.30 m
直径 4.10 m
スパン 29.00 m
形状 Box + pan
製造者 SPXS
バスタイプ Starlink V2MO
フェーズステータス In Orbit
所有者/国 SPXS/US

Most Searched